Temp
76 79 79 71 58 58 56 60 67 66 66 69 74 72 66 68 64 54 71 77 81 80 79 77 77 77 77 78 78 78 78 78 78 78 79 79 79 79 78 78 78 78 78 78 79 79 79 78 78
74 82 73 66 55 52 57 65 65 67 70 72 72 72 68 64 71 69 69 76 81 79 76 75 76 76 76 76 76 76 77 77 77 78 78 78 79 79 79 79 79 78 78 78 78 77 77 77 77
75 81 64 59 58 54 55 66 66 69 72 72 68 71 70 65 72 69 72 75 80 75 74 74 75 75 75 75 75 76 76 76 76 77 77 78 78 78 79 79 78 77 77 77 77 77 77 76 76
74 68 66 57 57 61 64 67 69 68 70 72 71 61 68 72 71 72 76 76 77 74 72 71 74 74 74 74 74 74 75 75 75 75 75 76 76 77 77 77 76 76 76 76 77 76 76 76 76
72 66 55 56 57 62 68 71 71 68 68 68 69 62 61 69 73 74 74 76 73 73 73 72 74 74 73 73 73 73 73 74 74 74 75 75 75 75 76 76 75 76 76 76 77 77 77 76 75
62 65 54 53 59 65 66 70 71 69 69 66 67 63 60 70 69 69 71 70 71 70 72 73 74 74 73 72 72 72 72 72 72 73 73 73 74 75 75 75 75 75 75 76 76 76 76 76 76
60 57 56 58 58 59 65 67 63 67 66 64 68 62 63 66 68 69 69 69 68 68 69 69 69 72 73 71 71 72 72 71 71 71 72 72 72 73 74 75 75 74 74 74 74 74 75 75 75
60 61 56 58 57 58 66 68 70 68 62 68 70 61 57 63 69 68 67 66 67 67 66 66 66 68 67 68 72 72 72 71 72 71 70 70 70 71 73 73 73 74 74 74 74 74 74 74 74
66 54 54 58 60 60 67 63 68 66 64 66 67 65 66 69 69 66 63 63 64 66 65 65 64 64 65 68 70 69 72 72 72 70 70 68 67 69 71 71 71 72 73 73 73 74 73 72 71
58 54 55 63 61 62 65 65 64 62 64 61 63 67 68 68 66 64 62 61 62 62 62 62 62 62 63 70 64 64 69 65 66 67 66 66 66 67 70 67 69 71 72 72 73 73 73 71 69
58 54 61 60 62 68 65 63 67 61 59 64 62 63 65 65 65 65 65 64 61 62 62 63 62 62 61 61 61 61 62 62 63 65 65 64 66 63 64 64 65 64 68 66 69 68 68 67 68
54 61 62 60 60 64 61 65 60 61 57 65 67 67 66 65 64 64 63 65 62 62 62 62 62 62 60 59 59 60 60 61 61 63 64 62 60 60 61 62 63 63 64 64 64 63 66 66 67
56 57 60 60 61 60 62 59 56 58 64 65 67 68 65 65 65 65 65 64 62 60 62 61 62 60 61 60 59 59 59 59 61 62 62 62 60 59 60 62 61 61 62 62 62 63 64 64 66
58 58 58 59 59 59 58 58 57 62 65 66 66 62 63 65 65 63 63 61 63 63 61 62 62 61 61 59 59 58 59 59 59 59 58 60 59 58 58 59 59 59 60 61 60 61 61 61 63
58 52 55 56 57 56 56 53 54 62 65 63 63 64 65 65 66 64 63 62 62 62 61 61 61 62 60 60 59 59 59 58 55 55 56 58 59 58 57 57 57 58 58 59 60 61 61 60 62
53 52 44 52 56 54 55 49 59 63 61 60 63 62 63 63 64 64 64 63 62 58 59 60 64 60 59 58 58 59 60 56 55 55 56 58 59 58 56 56 56 57 57 57 56 57 57 58 59
48 41 45 47 56 54 52 50 58 61 61 59 61 60 61 61 63 62 63 61 61 60 59 59 59 58 58 58 59 59 60 57 57 56 55 56 58 58 56 55 55 56 55 58 58 56 54 53 55
42 44 48 45 49 52 50 50 57 61 59 56 57 59 60 60 61 64 63 62 61 59 58 58 58 58 57 57 58 58 58 56 56 54 54 56 56 56 54 54 55 55 53 53 54 52 53 52 53
51 49 46 46 50 46 48 51 56 59 58 56 57 58 58 61 63 62 61 60 59 57 57 57 56 56 55 54 53 54 53 54 54 54 56 55 55 55 53 51 52 53 52 52 55 51 49 49 52
51 47 42 46 51 47 48 48 55 58 57 56 56 54 55 58 59 60 58 57 56 56 56 56 57 56 55 54 54 53 53 54 53 54 54 54 54 53 53 50 50 50 49 50 50 49 49 48 50
43 42 41 40 49 48 45 45 52 54 57 58 57 57 55 54 56 56 57 54 54 54 54 56 56 55 55 55 54 54 54 53 52 51 51 52 53 52 50 49 48 48 48 46 47 47 47 47 48
40 47 48 47 39 32 45 30 49 51 52 56 55 53 52 53 53 57 56 54 54 54 54 55 56 55 56 54 52 52 50 49 49 49 50 50 52 50 49 48 48 47 46 45 45 49 46 46 43
43 48 46 44 39 34 39 31 44 52 49 50 51 52 52 52 53 55 55 57 57 55 52 52 54 54 54 52 52 49 49 49 50 49 49 49 49 50 50 48 47 46 46 45 45 45 44 45 44
50 44 42 42 39 27 30 32 40 45 46 49 53 53 54 54 52 54 56 57 54 53 52 51 52 52 53 51 50 49 48 48 47 46 45 46 47 47 48 49 46 45 45 44 44 44 44 44 43
45 36 29 29 30 27 36 27 36 47 49 48 51 50 52 52 53 53 53 53 53 53 51 51 51 51 52 50 49 49 48 48 47 47 45 45 45 45 45 45 44 43 44 45 45 43 43 43 42
42 39 29 25 24 26 32 23 37 50 52 53 54 50 52 52 55 53 54 54 54 54 53 52 51 51 51 50 49 49 49 47 47 47 46 44 44 44 46 45 44 45 45 45 44 42 43 43 41
40 33 41 32 26 22 28 37 47 52 50 51 51 53 49 52 53 54 55 55 54 54 54 53 52 52 52 51 49 49 48 48 46 47 46 45 45 48 45 45 44 44 44 44 44 42 42 41 41
42 46 33 30 22 24 27 31 31 42 45 50 49 49 50 52 53 53 54 54 55 55 55 54 54 53 53 52 51 51 49 49 47 47 46 46 46 46 45 44 44 44 44 44 43 41 42 41 40
38 37 39 39 35 25 26 28 44 43 46 46 47 50 49 52 53 53 54 54 54 54 54 54 53 53 52 52 51 50 49 49 48 47 46 46 46 46 44 44 44 43 43 43 42 41 42 42 41
43 42 43 31 30 32 30 27 49 48 49 50 50 52 51 53 54 54 53 53 53 53 53 53 53 52 52 53 52 51 51 50 48 47 47 47 46 46 45 45 44 44 43 42 42 41 42 41 40
MSLP
1012.65 1012.09 1011.69 1011.40 1011.96 1011.09 1009.96 1009.47 1008.88 1009.46 1009.66 1010.30 1010.41 1010.67 1012.29 1013.23 1013.96 1015.81 1016.50 1016.17 1015.96 1016.52 1017.01 1017.16 1017.10 1017.09 1017.10 1017.10 1017.04 1017.00 1016.95 1016.91 1016.87 1016.84 1016.79 1016.75 1016.74 1016.74 1016.76 1016.78 1016.77 1016.78 1016.77 1016.69 1016.65 1016.59 1016.51 1016.44 1016.42
1012.62 1011.80 1011.67 1011.32 1011.44 1010.68 1009.69 1009.48 1009.78 1010.18 1010.49 1010.93 1011.39 1011.64 1012.54 1014.47 1014.83 1015.91 1016.54 1016.35 1016.20 1016.94 1017.57 1017.60 1017.53 1017.52 1017.55 1017.49 1017.41 1017.34 1017.25 1017.14 1017.06 1017.01 1016.94 1016.89 1016.81 1016.73 1016.66 1016.64 1016.63 1016.71 1016.72 1016.68 1016.63 1016.60 1016.55 1016.47 1016.44
1012.86 1012.02 1012.02 1011.49 1010.73 1010.30 1009.76 1009.58 1010.24 1010.82 1011.03 1011.31 1012.17 1012.61 1013.56 1015.07 1015.42 1016.16 1016.66 1016.33 1016.37 1017.30 1017.94 1017.96 1017.86 1017.85 1017.85 1017.83 1017.75 1017.68 1017.60 1017.48 1017.34 1017.18 1017.05 1016.93 1016.83 1016.76 1016.61 1016.55 1016.57 1016.61 1016.62 1016.61 1016.57 1016.50 1016.46 1016.38 1016.32
1012.30 1012.16 1012.01 1011.45 1010.45 1010.13 1009.59 1009.86 1010.50 1011.26 1011.57 1011.67 1012.20 1013.94 1015.10 1015.75 1015.98 1016.33 1016.57 1016.27 1016.73 1017.36 1017.93 1018.18 1018.11 1018.09 1018.09 1018.06 1018.05 1017.98 1017.89 1017.78 1017.66 1017.51 1017.31 1017.10 1016.96 1016.80 1016.66 1016.55 1016.51 1016.47 1016.41 1016.37 1016.32 1016.25 1016.21 1016.16 1016.11
1012.05 1011.58 1011.72 1011.19 1010.65 1010.22 1009.89 1010.09 1010.81 1011.31 1011.64 1012.12 1012.49 1014.03 1015.70 1016.44 1016.56 1016.77 1016.83 1016.84 1017.27 1017.63 1017.76 1018.08 1018.15 1018.19 1018.18 1018.18 1018.20 1018.20 1018.11 1017.99 1017.85 1017.72 1017.56 1017.38 1017.20 1016.97 1016.80 1016.66 1016.55 1016.47 1016.40 1016.30 1016.24 1016.18 1016.11 1016.07 1016.04
1011.90 1011.23 1011.31 1010.94 1010.69 1010.57 1010.53 1010.59 1010.92 1011.24 1011.83 1012.55 1013.07 1014.33 1016.11 1016.64 1017.07 1017.42 1017.46 1017.66 1017.76 1018.04 1018.00 1017.98 1018.09 1018.09 1018.17 1018.26 1018.25 1018.27 1018.23 1018.11 1017.95 1017.79 1017.64 1017.46 1017.28 1017.09 1016.90 1016.76 1016.64 1016.50 1016.37 1016.28 1016.18 1016.07 1015.99 1015.95 1015.90
1011.78 1011.33 1010.66 1010.46 1011.01 1011.13 1011.20 1011.18 1011.16 1011.65 1012.23 1012.77 1012.84 1014.38 1016.20 1016.92 1017.31 1017.55 1017.86 1018.02 1018.14 1018.31 1018.38 1018.39 1018.30 1018.18 1018.20 1018.36 1018.30 1018.22 1018.22 1018.11 1017.92 1017.78 1017.63 1017.47 1017.23 1016.96 1016.77 1016.59 1016.58 1016.62 1016.53 1016.38 1016.19 1015.99 1015.81 1015.68 1015.61
1012.02 1011.12 1010.45 1010.36 1011.17 1011.55 1011.66 1011.83 1011.85 1012.14 1012.99 1013.24 1013.59 1014.53 1016.08 1016.67 1017.24 1017.62 1017.97 1018.14 1018.35 1018.46 1018.64 1018.70 1018.71 1018.62 1018.54 1018.37 1018.21 1018.20 1018.05 1018.00 1017.76 1017.70 1017.54 1017.32 1016.95 1016.69 1016.58 1016.53 1016.61 1016.53 1016.41 1016.24 1016.05 1015.84 1015.64 1015.47 1015.35
1012.02 1011.99 1011.19 1010.93 1011.37 1011.84 1012.21 1012.48 1012.60 1013.06 1013.30 1013.70 1014.49 1015.04 1015.71 1016.41 1017.10 1017.72 1018.15 1018.33 1018.42 1018.59 1018.90 1018.94 1019.05 1018.99 1018.84 1018.47 1018.38 1018.34 1018.03 1017.86 1017.68 1017.55 1017.38 1017.28 1016.99 1016.69 1016.54 1016.42 1016.36 1016.23 1016.11 1016.01 1015.79 1015.53 1015.33 1015.16 1014.98
1012.19 1012.07 1012.21 1012.08 1012.14 1012.17 1012.60 1012.79 1013.27 1013.48 1013.72 1014.52 1015.32 1015.80 1016.29 1016.75 1017.20 1017.68 1017.99 1018.23 1018.46 1018.81 1019.02 1019.21 1019.24 1019.20 1019.06 1018.77 1018.76 1018.48 1018.21 1018.08 1017.93 1017.68 1017.57 1017.42 1017.23 1017.00 1016.73 1016.52 1016.24 1016.00 1015.94 1015.76 1015.44 1015.15 1015.06 1014.93 1014.72
1012.39 1012.88 1013.02 1013.45 1013.13 1012.56 1013.09 1013.27 1013.33 1013.62 1014.12 1014.19 1014.93 1015.80 1016.40 1016.81 1017.12 1017.37 1017.59 1017.91 1018.44 1018.80 1019.06 1019.31 1019.31 1019.22 1019.22 1019.22 1018.92 1018.73 1018.47 1018.39 1018.14 1017.91 1017.77 1017.62 1017.41 1017.32 1017.13 1016.83 1016.52 1016.20 1015.84 1015.75 1015.42 1015.17 1014.99 1014.81 1014.49
1013.04 1013.76 1013.64 1014.30 1014.22 1013.72 1014.00 1013.84 1014.06 1014.01 1014.61 1014.54 1014.55 1015.17 1016.05 1016.61 1016.96 1017.24 1017.48 1017.87 1018.37 1018.79 1019.10 1019.28 1019.26 1019.32 1019.32 1019.27 1019.11 1018.98 1018.83 1018.59 1018.40 1018.13 1018.00 1018.00 1017.85 1017.66 1017.45 1017.17 1016.81 1016.56 1016.25 1016.09 1015.88 1015.66 1015.30 1014.98 1014.69
1013.55 1014.33 1014.70 1014.98 1014.94 1014.98 1014.79 1014.76 1014.78 1014.45 1014.44 1014.72 1014.87 1015.36 1015.99 1016.44 1016.68 1017.07 1017.50 1017.94 1018.45 1018.73 1018.97 1019.20 1019.23 1019.39 1019.32 1019.27 1019.20 1019.05 1018.98 1018.89 1018.61 1018.37 1018.44 1018.44 1018.28 1018.15 1017.85 1017.59 1017.33 1017.04 1016.76 1016.60 1016.37 1016.05 1015.72 1015.37 1014.97
1014.05 1014.68 1015.26 1015.49 1015.54 1015.64 1015.38 1015.21 1015.16 1014.27 1014.42 1014.97 1015.34 1015.65 1015.95 1016.24 1016.44 1017.07 1017.69 1018.16 1018.49 1018.76 1018.99 1019.14 1019.31 1019.30 1019.22 1019.23 1019.16 1019.06 1018.94 1018.95 1019.06 1019.13 1019.18 1018.92 1018.62 1018.46 1018.21 1017.92 1017.66 1017.43 1017.27 1017.08 1016.78 1016.41 1016.04 1015.71 1015.32
1014.66 1015.24 1015.60 1015.91 1015.91 1016.05 1015.81 1015.61 1015.04 1014.49 1014.63 1015.14 1015.56 1015.72 1015.91 1016.02 1016.27 1016.75 1017.33 1017.90 1018.27 1018.68 1018.91 1019.16 1019.28 1019.23 1019.31 1019.25 1019.20 1019.07 1018.96 1019.32 1019.59 1019.65 1019.41 1019.14 1018.81 1018.69 1018.49 1018.20 1017.96 1017.77 1017.66 1017.52 1017.10 1016.69 1016.26 1015.96 1015.46
1014.67 1015.04 1015.72 1016.34 1016.19 1016.44 1016.05 1015.27 1014.34 1014.50 1014.94 1015.25 1015.31 1015.55 1015.73 1015.99 1016.27 1016.66 1017.16 1017.78 1018.38 1018.74 1019.01 1019.20 1019.29 1019.41 1019.50 1019.41 1019.21 1019.11 1019.03 1019.26 1019.44 1019.43 1019.36 1019.27 1019.00 1018.92 1018.78 1018.49 1018.33 1018.20 1018.19 1018.08 1017.76 1017.31 1016.92 1016.57 1016.18
1014.99 1015.17 1015.52 1016.45 1016.65 1016.61 1016.44 1015.46 1014.83 1014.76 1014.96 1015.18 1015.19 1015.30 1015.45 1015.87 1016.28 1016.69 1017.24 1017.89 1018.45 1018.92 1019.22 1019.33 1019.41 1019.55 1019.67 1019.39 1019.13 1019.04 1018.95 1019.12 1019.29 1019.42 1019.59 1019.52 1019.31 1019.19 1018.99 1018.72 1018.53 1018.37 1018.45 1018.26 1017.99 1017.60 1017.54 1017.24 1016.56
1014.91 1014.96 1015.47 1016.29 1017.16 1016.83 1016.65 1015.78 1015.15 1014.83 1014.84 1015.16 1015.25 1015.18 1015.25 1015.49 1015.97 1016.53 1017.16 1017.92 1018.50 1019.06 1019.36 1019.46 1019.54 1019.60 1019.63 1019.35 1019.12 1018.95 1018.93 1019.19 1019.35 1019.70 1019.84 1019.74 1019.64 1019.53 1019.32 1019.07 1018.87 1018.65 1018.63 1018.48 1018.18 1018.05 1017.95 1017.69 1017.12
1014.58 1015.06 1016.02 1016.88 1017.29 1017.17 1016.69 1015.96 1014.90 1014.59 1014.65 1014.96 1015.12 1014.97 1014.99 1015.04 1014.96 1015.93 1016.86 1017.65 1018.41 1018.97 1019.27 1019.34 1019.51 1019.57 1019.61 1019.49 1019.46 1019.30 1019.41 1019.44 1019.75 1019.93 1019.93 1019.97 1019.83 1019.77 1019.64 1019.56 1019.26 1019.01 1018.94 1018.73 1018.58 1018.46 1018.43 1017.97 1017.61
1015.48 1015.96 1016.98 1017.35 1017.53 1017.52 1016.86 1015.82 1014.69 1014.33 1014.36 1014.52 1014.81 1015.03 1015.28 1015.37 1015.52 1016.13 1016.99 1017.69 1018.39 1018.92 1019.09 1019.20 1019.26 1019.45 1019.54 1019.63 1019.67 1019.64 1019.60 1019.64 1019.76 1019.88 1019.98 1020.02 1019.94 1019.95 1019.82 1019.85 1019.73 1019.50 1019.40 1019.17 1019.00 1018.77 1018.60 1018.44 1018.12
1017.36 1017.39 1017.75 1018.06 1017.81 1017.76 1017.53 1016.09 1014.52 1014.38 1014.44 1014.68 1014.96 1015.44 1015.78 1016.01 1016.23 1016.96 1017.31 1017.95 1018.32 1018.71 1018.98 1019.19 1019.27 1019.45 1019.50 1019.66 1019.70 1019.49 1019.47 1019.60 1019.82 1019.96 1020.04 1020.03 1020.00 1020.08 1020.22 1020.20 1020.09 1019.93 1019.75 1019.62 1019.40 1019.11 1018.87 1018.51 1018.26
1018.26 1018.46 1018.51 1018.52 1018.55 1018.57 1017.99 1017.10 1015.35 1015.01 1015.15 1015.28 1015.46 1015.89 1016.30 1016.52 1016.54 1016.72 1017.29 1017.79 1018.16 1018.47 1018.71 1018.95 1019.18 1019.39 1019.52 1019.63 1019.66 1019.63 1019.77 1019.86 1019.94 1019.96 1020.06 1020.07 1020.03 1020.21 1020.32 1020.34 1020.22 1020.10 1019.95 1019.85 1019.64 1019.41 1019.22 1018.91 1018.72
1019.05 1019.07 1019.08 1019.14 1019.27 1019.35 1018.91 1018.53 1016.14 1015.47 1015.62 1015.90 1016.09 1016.34 1016.61 1016.75 1016.76 1017.00 1017.29 1017.66 1017.90 1018.24 1018.76 1019.06 1019.16 1019.27 1019.37 1019.43 1019.52 1019.60 1019.74 1019.70 1019.71 1019.89 1019.99 1020.04 1019.93 1019.92 1019.98 1020.09 1020.11 1020.02 1019.86 1019.88 1019.74 1019.48 1019.20 1018.86 1018.71
1019.39 1019.41 1019.61 1019.89 1020.16 1020.76 1020.27 1019.72 1017.45 1016.48 1016.23 1016.13 1016.17 1016.35 1016.50 1016.68 1017.02 1017.22 1017.46 1017.58 1017.96 1018.17 1018.58 1018.89 1019.06 1019.05 1018.98 1019.15 1019.44 1019.60 1019.81 1019.85 1019.93 1020.03 1020.18 1020.08 1019.91 1019.88 1019.85 1019.97 1020.14 1020.14 1020.06 1020.01 1019.81 1019.55 1019.30 1019.08 1018.86
1019.57 1019.78 1020.55 1021.16 1021.39 1021.77 1021.19 1020.46 1017.96 1016.86 1016.40 1016.14 1016.42 1016.70 1016.66 1016.74 1017.03 1017.34 1017.53 1017.72 1017.94 1018.02 1018.14 1018.39 1018.61 1018.60 1018.51 1018.77 1019.00 1019.17 1019.30 1019.43 1019.63 1019.70 1019.75 1019.79 1019.79 1019.72 1019.76 1019.83 1019.96 1019.89 1019.70 1019.57 1019.44 1019.37 1019.17 1018.95 1018.79
1019.61 1019.81 1020.64 1021.43 1022.09 1022.21 1021.65 1019.99 1017.79 1016.87 1016.41 1016.23 1016.41 1016.67 1016.72 1016.88 1017.01 1017.17 1017.26 1017.36 1017.52 1017.52 1017.62 1017.86 1017.95 1017.96 1018.08 1018.26 1018.45 1018.56 1018.77 1018.95 1019.06 1019.09 1019.09 1019.20 1019.27 1019.26 1019.30 1019.54 1019.68 1019.65 1019.49 1019.39 1019.30 1019.19 1018.97 1018.86 1018.74
1019.84 1020.08 1020.53 1021.31 1022.36 1022.33 1020.56 1019.01 1017.56 1016.94 1016.92 1016.79 1016.77 1016.82 1016.95 1017.03 1017.05 1017.08 1017.01 1017.04 1017.03 1016.86 1016.77 1016.95 1017.32 1017.56 1017.71 1017.73 1017.86 1018.07 1018.24 1018.40 1018.53 1018.60 1018.69 1018.75 1018.83 1018.90 1019.04 1019.22 1019.46 1019.42 1019.42 1019.26 1019.15 1019.08 1018.91 1018.78 1018.63
1020.21 1020.38 1020.70 1021.23 1022.12 1021.94 1020.19 1018.88 1017.60 1017.55 1017.42 1017.15 1017.12 1017.09 1017.08 1017.11 1017.10 1017.18 1017.09 1016.99 1016.74 1016.44 1016.25 1016.23 1016.45 1016.71 1016.96 1017.22 1017.43 1017.57 1017.62 1017.81 1018.04 1018.31 1018.43 1018.54 1018.66 1018.63 1018.75 1018.95 1018.97 1018.90 1018.89 1018.89 1018.95 1018.93 1018.79 1018.71 1018.54
1020.39 1020.23 1020.52 1020.89 1021.34 1021.76 1020.77 1019.24 1017.08 1017.35 1017.55 1017.33 1017.02 1016.91 1016.96 1017.12 1017.07 1017.02 1016.80 1016.61 1016.30 1015.94 1015.90 1015.88 1015.88 1016.08 1016.33 1016.53 1016.76 1016.99 1017.06 1017.15 1017.32 1017.47 1017.60 1017.68 1017.79 1017.91 1018.05 1018.27 1018.45 1018.56 1018.58 1018.55 1018.51 1018.44 1018.37 1018.43 1018.48
1019.95 1019.77 1019.96 1020.60 1021.24 1021.22 1020.86 1018.94 1017.42 1017.39 1017.29 1017.01 1016.74 1016.65 1016.81 1016.85 1016.88 1016.87 1016.73 1016.62 1016.33 1015.90 1015.47 1015.43 1015.43 1015.59 1015.81 1015.97 1016.17 1016.29 1016.39 1016.62 1016.85 1017.03 1017.18 1017.42 1017.55 1017.64 1017.77 1017.94 1018.04 1018.08 1018.10 1018.08 1018.11 1018.16 1018.14 1018.23 1018.30
Wind_Speed
10 10 7 2 2 2 4 3 5 6 5 4 9 10 13 10 6 6 5 5 10 13 12 13 17 15 14 13 12 11 10 9 9 9 9 6 5 3 2 3 3 4 4 5 6 7 8 7 4
6 5 2 3 1 4 2 7 7 6 8 9 8 4 10 7 8 11 7 5 10 12 10 10 15 16 15 14 14 13 12 11 10 9 8 7 6 6 5 4 5 5 5 5 7 7 7 8 7
6 5 0 2 4 3 3 8 12 9 7 5 5 9 6 4 10 5 5 3 10 13 10 10 15 15 14 14 14 13 13 12 12 11 9 7 6 6 6 6 5 5 4 6 7 8 8 8 8
4 1 3 1 7 3 5 12 14 9 5 6 11 9 6 6 4 5 8 4 9 10 9 10 13 13 13 13 13 13 13 12 12 11 11 11 11 9 7 6 5 4 5 7 8 8 8 8 8
3 3 2 4 3 0 8 9 10 8 8 5 5 5 6 6 8 8 8 10 9 8 6 7 11 10 9 10 11 12 12 12 11 11 10 10 10 9 8 8 7 7 7 8 9 9 10 8 9
2 1 3 4 6 5 6 6 7 7 7 4 7 8 4 10 9 5 8 8 8 7 7 7 7 4 5 7 10 11 10 10 11 10 11 11 12 11 9 8 7 8 8 9 10 10 10 10 10
3 3 5 6 7 4 5 1 2 8 7 3 3 7 7 8 8 7 6 7 7 7 7 6 6 8 4 4 8 10 8 9 9 9 9 10 12 13 11 9 7 6 9 10 10 11 11 12 12
1 2 2 5 9 5 6 3 8 7 5 3 7 4 7 8 10 8 6 6 7 6 6 6 7 7 7 7 7 12 7 7 9 8 8 9 12 12 10 10 2 6 8 9 10 11 12 13 12
2 3 4 4 8 7 7 4 4 3 6 4 6 8 8 11 10 7 5 4 5 5 6 6 6 6 7 7 8 10 10 10 10 7 7 7 5 7 8 10 10 11 9 10 12 13 12 12 12
1 2 6 6 7 7 8 8 6 3 7 5 7 7 8 8 7 7 7 6 5 5 5 6 6 6 6 6 6 6 6 5 6 5 7 5 6 6 8 7 11 13 11 11 14 14 13 11 6
3 3 4 9 6 6 6 5 3 3 5 5 10 10 8 7 8 7 5 6 7 5 5 5 5 5 6 5 4 3 3 3 4 6 6 5 5 5 5 4 4 4 6 3 5 6 4 5 5
6 6 7 4 6 4 5 5 3 4 3 5 8 11 9 8 7 5 3 7 7 6 5 4 3 4 4 4 3 4 4 4 4 4 6 5 4 4 5 4 5 5 4 6 6 4 6 7 8
7 6 6 6 6 7 3 3 2 3 6 4 2 9 8 7 8 6 6 7 4 4 5 3 4 4 3 3 3 3 3 4 5 5 7 7 5 5 5 6 5 5 5 5 6 6 6 7 7
6 8 8 5 6 4 2 3 3 6 6 6 5 4 6 7 8 7 6 4 5 4 5 3 4 3 3 3 4 4 2 3 6 7 7 7 5 5 4 5 4 5 5 6 5 5 5 5 5
9 8 6 5 3 4 1 3 8 2 5 7 8 7 8 7 6 8 9 7 5 4 3 4 2 3 5 4 4 3 2 5 5 3 5 6 6 6 6 5 4 4 5 7 7 7 7 6 6
3 4 4 3 4 1 2 2 6 8 7 8 9 8 8 7 6 6 6 5 6 1 4 3 4 4 5 5 3 3 3 4 3 3 2 6 6 7 5 4 4 5 5 6 6 6 7 7 7
2 3 4 3 3 3 2 3 3 6 6 8 7 8 8 8 6 4 7 6 6 2 2 2 4 4 4 5 3 1 1 4 3 4 4 6 6 6 5 4 4 4 3 5 5 5 6 7 8
4 3 5 4 2 1 4 12 8 8 9 8 8 9 9 9 10 9 9 6 6 3 1 2 2 2 3 3 3 2 0 3 3 4 4 6 5 6 5 5 5 5 2 3 4 5 5 6 7
3 6 6 3 1 2 6 12 10 8 7 9 9 7 6 9 11 10 9 9 7 2 1 1 1 2 1 2 2 2 2 2 4 3 5 5 5 6 6 4 5 5 5 5 5 4 6 5 8
6 8 5 2 1 1 6 15 14 8 5 0 2 2 6 9 6 10 9 7 6 5 5 3 4 2 0 1 1 1 2 1 3 2 3 3 4 5 5 6 5 6 5 6 6 5 5 3 7
6 5 3 1 4 3 6 8 4 4 7 5 5 5 4 4 7 7 8 7 6 5 6 5 3 1 1 1 2 1 1 0 1 2 1 2 3 4 5 6 5 5 5 4 5 5 6 4 4
5 2 1 3 4 1 1 5 6 5 6 8 6 6 7 6 2 0 7 6 6 6 5 4 4 3 3 2 2 1 1 1 2 1 1 2 2 3 4 5 5 5 4 5 4 5 4 4 4
4 1 3 2 2 3 2 4 5 8 7 7 6 6 6 4 3 5 5 6 5 5 5 5 5 4 4 3 4 2 3 2 2 2 2 2 0 1 2 2 4 4 3 4 5 5 5 3 2
5 2 0 2 1 3 1 3 3 3 4 5 6 6 4 6 2 2 3 4 3 5 5 5 6 6 6 5 5 5 5 4 2 3 1 2 2 2 1 2 3 4 4 4 4 4 5 4 3
4 1 3 4 3 5 3 3 8 4 5 2 5 6 5 3 5 6 7 7 8 8 8 7 8 8 7 7 7 7 7 7 6 5 4 3 2 2 2 0 2 2 3 3 3 4 3 4 3
3 2 5 4 1 3 4 5 5 5 7 7 6 2 2 4 1 4 7 6 7 8 8 8 8 8 8 8 8 8 8 5 5 6 4 4 4 3 2 2 3 3 3 3 3 3 2 3 4
1 1 1 4 2 3 5 5 2 6 7 6 5 4 3 6 6 6 7 7 8 9 9 10 9 8 8 8 7 7 7 7 6 7 5 5 5 3 5 4 4 4 4 3 3 3 3 3 3
2 1 2 3 2 3 5 4 6 6 5 4 5 5 6 6 7 6 6 7 7 8 8 8 9 9 8 8 7 7 8 7 7 6 7 6 6 5 4 5 5 4 4 4 3 3 3 3 4
2 2 2 1 3 4 3 7 2 8 6 2 1 1 3 5 6 6 6 7 8 7 6 7 7 8 7 7 7 8 7 8 7 7 7 7 6 7 7 6 5 5 5 4 4 4 4 2 4
3 3 7 4 3 3 3 9 3 8 8 7 2 1 3 4 5 5 6 8 8 8 7 6 5 7 7 7 7 7 7 7 7 7 7 7 7 7 7 7 6 6 6 6 6 5 3 3 4
Wind_Direction
289 253 242 335 71 198 240 47 90 84 60 72 47 67 97 43 29 116 59 6 69 64 53 53 54 56 53 48 46 40 35 30 24 18 18 18 3 338 318 327 319 314 318 320 320 323 322 316 294
307 265 306 263 186 210 173 116 129 83 93 90 46 78 39 74 74 114 109 318 76 78 62 52 58 58 53 48 45 40 34 30 22 16 11 6 356 345 330 307 308 297 305 311 312 316 310 302 289
274 292 301 185 220 331 107 153 96 92 135 118 99 38 73 73 45 69 112 281 87 91 69 56 59 56 52 46 41 37 32 27 21 15 5 354 338 336 337 330 319 331 307 297 295 296 298 304 308
219 217 297 273 235 13 121 109 113 110 59 353 109 84 72 21 75 79 141 202 79 92 90 64 58 54 50 44 37 30 24 20 16 13 7 1 354 346 334 328 315 304 290 286 283 282 284 284 285
258 239 249 234 56 125 70 105 127 156 141 118 356 108 91 67 79 61 56 42 76 53 84 92 67 54 50 46 36 23 14 9 4 0 354 349 345 340 338 330 326 310 299 294 292 292 292 286 283
241 233 225 215 103 72 60 115 174 110 109 74 101 100 99 132 102 84 71 64 46 60 40 33 79 64 70 54 43 20 6 359 350 345 343 340 332 323 316 315 315 318 314 311 304 301 296 295 285
255 197 222 157 122 123 126 26 172 113 119 97 72 104 127 143 124 110 96 96 82 57 43 38 20 11 52 76 42 14 346 343 335 330 328 325 315 301 294 297 304 344 336 325 313 301 292 284 280
301 305 223 108 146 149 120 180 341 85 84 52 4 154 168 144 135 120 107 91 87 74 57 34 18 15 4 339 26 352 314 298 308 306 297 296 296 287 271 278 52 316 306 302 295 292 287 283 282
314 298 200 85 161 124 142 113 346 345 107 67 44 60 86 128 132 135 130 141 135 100 68 35 28 13 355 333 14 340 340 343 354 317 318 309 329 345 344 337 318 301 288 284 283 277 271 268 265
148 297 26 31 9 132 159 146 143 171 116 113 99 83 110 131 152 165 177 160 114 72 77 48 24 11 358 355 347 332 347 3 340 357 353 351 337 341 346 301 286 279 287 277 274 272 267 272 261
38 51 99 35 5 70 145 85 74 237 161 190 174 158 161 166 182 192 181 122 107 112 68 51 21 4 13 353 325 348 338 9 328 1 1 356 353 356 339 331 335 342 323 307 334 336 300 299 301
102 33 62 77 345 13 100 69 160 277 121 355 50 145 161 177 169 196 195 131 131 112 95 75 25 14 15 336 352 340 348 336 352 339 13 355 350 352 336 333 339 345 341 345 348 341 331 339 338
88 103 76 97 68 41 36 48 43 282 125 86 49 135 162 188 170 141 68 83 96 106 91 72 41 25 354 346 347 329 346 358 321 10 26 4 1 5 348 344 348 346 357 358 346 338 335 329 324
100 99 114 98 93 73 12 124 19 226 136 140 143 207 197 201 170 138 134 209 162 122 83 72 43 11 351 354 358 314 46 324 28 21 12 341 346 355 354 333 334 339 2 341 325 318 312 312 318
136 100 115 42 17 76 42 248 224 181 128 182 190 208 219 196 190 179 174 192 131 123 117 69 57 5 16 358 353 336 31 71 50 3 324 336 342 1 347 330 351 7 356 349 339 342 342 335 322
139 156 122 26 355 112 308 304 196 154 159 223 216 204 210 215 211 187 139 119 119 171 79 49 47 7 17 344 330 11 6 120 149 227 317 12 4 4 337 346 3 9 8 356 350 341 339 334 333
224 169 144 123 29 350 249 283 137 156 208 239 240 214 200 200 200 174 128 155 144 111 63 32 46 32 3 326 316 360 298 69 52 39 32 0 19 3 358 358 2 13 37 355 334 350 353 334 322
182 109 118 128 31 291 257 265 264 207 204 224 246 245 209 191 190 176 156 153 93 110 90 23 34 40 338 310 311 242 150 75 57 52 39 13 18 4 2 357 352 3 9 357 321 0 341 318 324
274 113 124 93 73 341 240 263 264 270 214 215 227 264 260 213 194 160 148 135 134 168 199 168 315 32 326 351 348 343 40 20 62 45 45 19 22 11 357 357 351 357 355 347 6 342 346 328 346
25 101 52 115 226 217 315 285 268 247 238 224 331 341 357 4 74 138 136 133 152 223 181 205 204 215 343 9 343 22 353 52 113 123 70 44 18 29 4 0 353 356 352 354 355 354 347 328 356
37 59 63 32 270 149 294 288 153 52 81 58 81 66 10 350 345 140 142 158 174 206 210 205 215 213 251 115 299 277 235 264 250 45 42 344 22 32 24 0 358 354 357 351 350 347 347 332 342
113 9 52 353 27 212 43 283 38 129 119 63 64 95 47 22 34 202 155 170 183 208 184 203 210 211 214 168 292 247 258 269 180 186 240 285 56 36 33 1 354 349 348 359 337 347 332 345 338
123 234 30 354 347 33 100 72 255 134 86 90 69 87 89 62 42 70 124 176 197 167 183 219 223 203 222 205 217 245 252 198 204 228 254 262 240 106 115 356 338 335 337 339 339 336 330 318 351
137 174 268 246 93 33 314 109 303 26 44 36 48 52 116 129 104 114 158 150 224 196 198 212 227 226 216 197 232 225 243 249 247 257 246 275 242 241 205 24 334 324 338 329 322 324 337 331 339
249 153 358 10 11 220 86 53 241 46 28 62 74 36 30 64 183 204 211 223 226 225 213 209 215 231 215 206 214 220 225 225 226 229 216 222 247 239 228 139 296 276 282 302 312 313 316 315 315
35 17 148 186 221 278 31 234 232 105 69 70 101 205 359 76 290 247 247 251 251 236 222 213 218 226 218 208 213 215 220 214 221 222 210 214 216 218 201 233 261 282 295 300 312 302 296 338 317
122 185 342 102 26 60 221 256 70 114 83 98 117 99 50 23 5 339 305 270 255 243 227 210 214 225 223 221 209 213 213 215 217 225 213 212 224 211 220 223 260 278 290 286 294 294 302 339 309
339 208 71 343 89 279 276 249 219 154 148 102 22 21 5 5 346 324 314 302 291 288 259 221 209 215 215 219 213 216 217 213 212 218 226 220 227 216 208 228 235 242 250 261 275 290 305 327 306
150 220 248 33 146 177 321 273 43 144 176 131 239 17 336 315 302 296 300 296 286 277 284 265 228 219 225 220 216 222 222 216 209 209 214 215 211 209 206 216 224 238 245 248 250 258 260 262 298
330 279 181 131 213 232 142 275 100 146 181 212 147 96 21 317 313 329 342 324 320 290 260 257 248 228 219 223 232 235 227 219 219 217 217 215 218 214 213 214 217 223 231 228 231 245 265 250 269